Regional Weather Roundup
Issued by NWS

Home | Current Version | Previous Version | Graphics & Text | Print | Product List | Glossary On
Versions: 1 2 3 4 5 6 7 8 9 10 11 12 13 14 15 16 17 18 19 20 21 22 23 24 25 26 27 28 29 30 31 32 33 34 35 36 37 38 39 40 41 42 43 44 45 46 47 48 49 50
000
ASUS43 KBIS 181102
RWRND

NORTH DAKOTA REGIONAL WEATHER ROUNDUP
NATIONAL WEATHER SERVICE BISMARCK ND
500 AM CST WED JAN 18 2017

NOTE: "FAIR" INDICATES FEW OR NO CLOUDS BELOW 12,000 FEET WITH NO
SIGNIFICANT WEATHER AND/OR OBSTRUCTIONS TO VISIBILITY.


NDZ001>003-009>011-017-181200-
NORTHWEST NORTH DAKOTA

CITY           SKY/WX    TMP DP  RH WIND       PRES   REMARKS
WILLISTON      FAIR      29  22  75 S6        29.68F
MINOT          FAIR      37  28  70 SW13      29.64S
$$

NDZ018>021-031>035-040>046-181200-
SOUTHWEST NORTH DAKOTA

CITY           SKY/WX    TMP DP  RH WIND       PRES   REMARKS
BISMARCK       FAIR      17  12  80 CALM      29.75F
DICKINSON      FAIR      34  21  59 W8        29.71F
GARRISON         N/A     29  22  75 W5        29.69S
HETTINGER ARPT CLOUDY    28  19  69 NW6       29.76F
$$

NDZ004>008-012>016-024-026-027-054-181200-
NORTHEAST NORTH DAKOTA

CITY           SKY/WX    TMP DP  RH WIND       PRES   REMARKS
GRAND FORKS    CLOUDY    27  19  72 S15       29.69S WCI  15
GRND FRKS AFB  CLOUDY    22  17  80 SE7       29.68S WCI  14
DEVILS LAKE    FAIR      27  22  81 SW9       29.67F WCI  18
$$

NDZ022-023-025-028>030-036>039-047>053-181200-
SOUTHEAST NORTH DAKOTA

CITY           SKY/WX    TMP DP  RH WIND       PRES   REMARKS
FARGO          CLOUDY    20  16  84 S10       29.75F WCI   9
JAMESTOWN      FAIR      26  20  77 SW8       29.71S WCI  18
$$





USA.gov is the U.S. government's official web portal to all federal, state and local government web resources and services.